INMARSAT 3-F3

Last updated on Mon Sep 07 2026 00:02:56 GMT+0000 (Coordinated Universal Time)

1 24674U 96070A 26249.29906759 -.00000289 00000+0 00000+0 0 9993 2 24674 10.4900 48.8480 0005475 142.8885 222.9975 0.99995550108723
UTC large
Height (km)
Speed (km/s)
/
Latitude / Longitude
Inclination (degrees)
Orbital Period (minutes)
Azimuth
Elevation
Range (km)
Doppler Factor

Next 0 passes for location: London (51.5072 / 0.1276)

No passes found over London.
INMARSAT 3-F3